This is the latest recevied weather packets stored in our database for station/object N3TJJ-2. If no packets are shown the sender has not sent any weather packets the latest 10 day(s).
| Time | Temp. | Humidity | Pressure | Rain* | Wind** | Luminosity | Snow |
|---|---|---|---|---|---|---|---|
| 1777484491 | 12.78° C | 70% | 1013.8 hPa | 0 mm | - | - | - |
| 1777484125 | 12.78° C | 72% | 1013.7 hPa | 0 mm | - | - | - |
| 1777483749 | 12.78° C | 71% | 1013.8 hPa | 0 mm | - | - | - |
| 1777483390 | 12.78° C | 72% | 1013.9 hPa | 0 mm | - | - | - |
| 1777483031 | 12.78° C | 70% | 1014.1 hPa | 0 mm | - | - | - |
| 1777482669 | 12.78° C | 71% | 1014.2 hPa | 0 mm | - | - | - |
| 1777482333 | 13.33° C | 73% | 1014.3 hPa | 0 mm | - | - | - |
| 1777481949 | 13.33° C | 69% | 1014.5 hPa | 0 mm | - | - | - |
| 1777481596 | 13.33° C | 68% | 1014.5 hPa | 0 mm | - | - | - |
| 1777481241 | 13.33° C | 69% | 1014.7 hPa | 0 mm | - | - | - |
| 1777480869 | 13.33° C | 70% | 1014.8 hPa | 0 mm | - | - | - |
| 1777480543 | 13.33° C | 70% | 1014.8 hPa | 0 mm | - | - | - |
| 1777480150 | 13.33° C | 70% | 1014.9 hPa | 0 mm | - | - | - |
| 1777479791 | 13.33° C | 70% | 1014.9 hPa | 0 mm | - | - | - |
| 1777479429 | 13.89° C | 70% | 1014.8 hPa | 0 mm | - | - | - |
| 1777479069 | 13.89° C | 68% | 1014.9 hPa | 0 mm | - | - | - |
| 1777478738 | 13.89° C | 69% | 1014.9 hPa | 0 mm | - | - | - |
| 1777478349 | 14.44° C | 68% | 1014.9 hPa | 0 mm | - | - | - |
| 1777477989 | 14.44° C | 68% | 1014.9 hPa | 0 mm | - | - | - |
| 1777477631 | 13.89° C | 70% | 1014.9 hPa | 0 mm | - | - | - |
| 1777477273 | 13.89° C | 70% | 1015.1 hPa | 0 mm | - | - | - |
| 1777476920 | 13.89° C | 70% | 1015.1 hPa | 0 mm | - | - | - |
| 1777476913 | 13.89° C | 70% | 1015.1 hPa | 0 mm | - | - | - |
| 1777476551 | 13.89° C | 70% | 1015.1 hPa | 0 mm | - | - | - |
| 1777476192 | 13.89° C | 71% | 1015.1 hPa | 0 mm | - | - | - |
* Rain latest hour (hover to see other rain measurements)
** Current wind speed in m/s (hover to see current wind gust speed)